Alma, MI

4:10 PM EST on December 14, 2019 (GMT -0500)
Gratiot Community

Weather History for KAMN - May, 2019

Change the Weather History Date:

Thursday, May 2, 2019

  Actual Average Record
Temperature  
Mean Temperature 46 °F -  
Max Temperature 50 °F 64 °F 85 °F (1951)
Min Temperature 41 °F 39 °F 27 °F (1978)
Degree Days  
Heating Degree Days 20    
Moisture  
Dew Point 43 °F    
Average Humidity 94    
Maximum Humidity 97    
Minimum Humidity 89    
Precipitation  
Precipitation 0.00 in - - ()
Sea Level Pressure  
Sea Level Pressure 30.13 in    
Wind  
Wind Speed 7 mph (NE)    
Max Wind Speed 16 mph    
Max Gust Speed -    
Visibility 5 miles    
Events Fog , Rain    
Averages and records for this station are not official NWS values.
T = Trace of Precipitation, MM = Missing Value Source: NWS Daily Summary

Daily Weather History Graph

Daily Weather History Graph

Search for Another Location

Airport or City:

Astronomy

May. 02, 2019 Rise Set
Actual Time 6:30 AM EDT 8:41 PM EDT
Civil Twilight 5:59 AM EDT 9:12 PM EDT
Nautical Twilight 5:20 AM EDT 9:51 PM EDT
Astronomical Twilight 4:38 AM EDT 10:34 PM EDT
Moon 5:50 AM EDT (5/2) 6:21 PM EDT (5/2)
Length of Visible Light 15h 13m
Length of Day
14h 10m
Waning Crescent, 5% of the Moon is Illuminated
May 2
Waning Crescent
May 4
New
May 11
First Quarter
May 18
Full
May 26
Last Quarter

Hourly Weather History & Observations

Time (EDT) Temp. Windchill Dew Point Humidity Pressure Visibility Wind Dir Wind Speed Gust Speed Precip Events Conditions
12:15 AM 50.5 °F - 48.4 °F 92% 30.10 in 7.0 mi NNE 3.5 mph - N/A   Overcast
12:35 AM 50.2 °F - 48.0 °F 92% 30.11 in 4.0 mi ENE 8.1 mph - N/A   Overcast
12:55 AM 47.3 °F - 45.5 °F 93% 30.11 in 4.0 mi ENE 6.9 mph - N/A   Overcast
12:56 AM 47.3 °F - 45.5 °F 93% 30.11 in 4.0 mi ENE 5.8 mph - N/A   Overcast
1:15 AM 46.6 °F - 44.8 °F 93% 30.11 in 4.0 mi ENE 10.4 mph - N/A   Overcast
1:35 AM 45.9 °F 41.7 °F 44.2 °F 94% 30.11 in 4.0 mi ENE 8.1 mph - N/A   Overcast
1:36 AM 45.9 °F 41.7 °F 44.2 °F 94% 30.11 in 4.0 mi ENE 8.1 mph - N/A   Overcast
1:55 AM 45.5 °F 41.8 °F 43.7 °F 93% 30.11 in 3.0 mi ENE 6.9 mph - N/A   Overcast
1:56 AM 45.3 °F 41.1 °F 43.7 °F 94% 30.11 in 3.0 mi ENE 8.1 mph - N/A   Overcast
2:15 AM 44.6 °F 40.2 °F 43.0 °F 94% 30.12 in 3.0 mi ENE 8.1 mph - N/A   Overcast
2:16 AM 44.6 °F 40.2 °F 43.0 °F 94% 30.12 in 3.0 mi ENE 8.1 mph - N/A   Overcast
2:35 AM 44.2 °F 39.2 °F 42.8 °F 95% 30.11 in 2.5 mi ENE 9.2 mph - N/A   Overcast
2:36 AM 44.2 °F 39.2 °F 42.8 °F 95% 30.11 in 2.5 mi ENE 9.2 mph - N/A   Overcast
2:55 AM 44.1 °F 40.1 °F 42.8 °F 95% 30.12 in 2.5 mi ENE 6.9 mph - N/A   Light Drizzle
2:56 AM 44.1 °F 40.1 °F 42.8 °F 95% 30.12 in 2.5 mi ENE 6.9 mph - N/A   Light Drizzle
3:15 AM 43.7 °F 39.7 °F 42.3 °F 95% 30.12 in 2.5 mi ENE 6.9 mph - N/A   Overcast
3:16 AM 43.7 °F 39.7 °F 42.3 °F 95% 30.12 in 2.5 mi ENE 6.9 mph - N/A   Overcast
3:35 AM 43.7 °F 40.3 °F 42.3 °F 95% 30.14 in 2.0 mi ENE 5.8 mph - N/A   Overcast
3:36 AM 43.7 °F 39.7 °F 42.1 °F 94% 30.14 in 2.0 mi ENE 6.9 mph - N/A   Overcast
3:55 AM 43.2 °F 39.0 °F 41.9 °F 95% 30.14 in 2.0 mi ENE 6.9 mph - N/A   Overcast
3:56 AM 43.2 °F 39.0 °F 41.9 °F 95% 30.14 in 2.0 mi ENE 6.9 mph - N/A   Overcast
4:15 AM 42.4 °F 38.1 °F 41.2 °F 95% 30.14 in 2.5 mi ENE 6.9 mph - N/A   Overcast
4:35 AM 42.3 °F 37.3 °F 41.0 °F 95% 30.13 in 2.0 mi ENE 8.1 mph - N/A   Overcast
4:55 AM 42.1 °F 37.1 °F 40.8 °F 95% 30.14 in 2.5 mi ENE 8.1 mph - N/A   Overcast
5:15 AM 41.7 °F 36.1 °F 40.5 °F 95% 30.14 in 2.5 mi ENE 9.2 mph - N/A   Overcast
5:35 AM 41.5 °F 35.4 °F 40.5 °F 96% 30.13 in 2.5 mi ENE 10.4 mph - N/A   Overcast
5:55 AM 41.4 °F 33.6 °F 40.3 °F 96% 30.11 in 2.0 mi East 15.0 mph - N/A   Overcast
5:56 AM 41.4 °F 33.3 °F 40.3 °F 96% 30.11 in 2.0 mi East 16.1 mph - N/A   Overcast
6:15 AM 41.0 °F 35.8 °F 40.1 °F 97% 30.15 in 2.5 mi NNE 8.1 mph - N/A   Overcast
6:16 AM 41.0 °F 37.1 °F 40.1 °F 97% 30.15 in 2.5 mi NE 5.8 mph - N/A   Overcast
6:35 AM 41.0 °F 39.0 °F 40.1 °F 97% 30.16 in 2.0 mi NNE 3.5 mph - N/A   Overcast
6:55 AM 41.0 °F 37.1 °F 40.1 °F 97% 30.16 in 0.8 mi ENE 5.8 mph - N/A   Overcast
6:56 AM 41.0 °F 37.1 °F 40.1 °F 97% 30.16 in 0.8 mi NE 5.8 mph - N/A   Overcast
7:15 AM 41.2 °F 37.3 °F 40.1 °F 96% 30.17 in 0.8 mi ENE 5.8 mph - N/A   Overcast
7:16 AM 41.2 °F 38.2 °F 40.1 °F 96% 30.17 in 0.8 mi ENE 4.6 mph - N/A   Overcast
7:35 AM 41.2 °F 37.3 °F 40.3 °F 97% 30.18 in 0.5 mi ENE 5.8 mph - N/A Fog Fog
7:36 AM 41.4 °F 37.6 °F 40.3 °F 96% 30.18 in 0.5 mi ENE 5.8 mph - N/A Fog Fog
7:55 AM 41.5 °F 35.4 °F 40.5 °F 96% 30.17 in 1.0 mi ENE 10.4 mph - N/A   Overcast
7:56 AM 41.5 °F 35.4 °F 40.5 °F 96% 30.17 in 1.0 mi ENE 10.4 mph - N/A   Overcast
8:15 AM 41.9 °F 36.9 °F 40.6 °F 95% 30.17 in 1.2 mi ENE 8.1 mph - N/A   Overcast
8:16 AM 41.9 °F 36.9 °F 40.6 °F 95% 30.17 in 1.2 mi ENE 8.1 mph - N/A   Overcast
8:35 AM 41.9 °F 36.3 °F 41.0 °F 97% 30.16 in 1.5 mi East 9.2 mph - N/A   Overcast
8:55 AM 42.6 °F 35.6 °F 41.5 °F 96% 30.15 in 5.0 mi East 13.8 mph - N/A   Overcast
9:15 AM 42.4 °F 38.1 °F 41.4 °F 96% 30.16 in 10.0 mi East 6.9 mph - N/A   Overcast
9:35 AM 42.6 °F 37.8 °F 41.4 °F 95% 30.16 in 3.0 mi East 8.1 mph - N/A   Overcast
9:36 AM 42.6 °F 37.8 °F 41.4 °F 95% 30.16 in 4.0 mi ENE 8.1 mph - N/A   Overcast
9:55 AM 42.8 °F 37.0 °F 41.9 °F 97% 30.15 in 4.0 mi East 10.4 mph - N/A   Overcast
9:56 AM 42.8 °F 37.0 °F 41.9 °F 97% 30.15 in 4.0 mi East 10.4 mph - N/A   Overcast
10:15 AM 43.3 °F 38.6 °F 42.3 °F 96% 30.16 in 5.0 mi ENE 8.1 mph - N/A   Overcast
10:16 AM 43.3 °F 39.9 °F 42.1 °F 95% 30.16 in 5.0 mi East 5.8 mph - N/A   Overcast
10:35 AM 43.7 °F 42.1 °F 42.4 °F 95% 30.16 in 7.0 mi ENE 3.5 mph - N/A   Overcast
10:55 AM 43.9 °F 42.3 °F 42.8 °F 96% 30.16 in 5.0 mi East 3.5 mph - N/A   Overcast
10:56 AM 43.9 °F 42.3 °F 42.8 °F 96% 30.16 in 5.0 mi East 3.5 mph - N/A   Overcast
11:15 AM 44.1 °F 42.5 °F 42.8 °F 95% 30.17 in 5.0 mi NE 3.5 mph - N/A   Overcast
11:35 AM 44.6 °F - 43.2 °F 95% 30.17 in 10.0 mi Calm Calm - N/A   Overcast
11:55 AM 44.8 °F 43.3 °F 43.3 °F 95% 30.17 in 7.0 mi NE 3.5 mph - N/A   Overcast
12:15 PM 45.9 °F 44.6 °F 44.2 °F 94% 30.17 in 10.0 mi NE 3.5 mph - N/A   Overcast
12:16 PM 45.9 °F 44.6 °F 44.2 °F 94% 30.17 in 10.0 mi NE 3.5 mph - N/A   Overcast
12:35 PM 46.4 °F - 44.4 °F 93% 30.17 in 10.0 mi Calm Calm - N/A   Overcast
12:36 PM 46.4 °F - 44.4 °F 93% 30.17 in 10.0 mi Calm Calm - N/A   Overcast
12:55 PM 46.6 °F - 44.6 °F 93% 30.16 in 7.0 mi NNE 5.8 mph - N/A   Overcast
12:56 PM 46.6 °F - 44.6 °F 93% 30.16 in 7.0 mi NNE 5.8 mph - N/A   Overcast
1:15 PM 46.8 °F - 44.6 °F 92% 30.16 in 7.0 mi ENE 4.6 mph - N/A   Overcast
1:35 PM 46.9 °F - 44.6 °F 92% 30.16 in 10.0 mi NNE 4.6 mph - N/A   Overcast
1:55 PM 47.5 °F - 44.8 °F 90% 30.16 in 10.0 mi Calm Calm - N/A   Overcast
2:15 PM 47.5 °F - 44.6 °F 90% 30.16 in 10.0 mi Calm Calm - N/A   Overcast
2:35 PM 47.5 °F - 44.6 °F 90% 30.16 in 10.0 mi NNE 3.5 mph - N/A   Overcast
2:36 PM 47.5 °F - 44.6 °F 90% 30.16 in 10.0 mi NE 3.5 mph - N/A   Overcast
2:55 PM 47.7 °F - 44.6 °F 89% 30.15 in 10.0 mi North 5.8 mph - N/A   Overcast
2:56 PM 47.7 °F - 44.6 °F 89% 30.15 in 10.0 mi North 6.9 mph - N/A   Overcast
3:15 PM 47.3 °F - 44.4 °F 90% 30.15 in 5.0 mi Calm Calm - N/A   Overcast
3:35 PM 47.5 °F - 44.6 °F 90% 30.14 in 10.0 mi NNE 4.6 mph - N/A   Overcast
3:55 PM 46.8 °F - 44.6 °F 92% 30.13 in 1.0 mi NE 4.6 mph - N/A   Unknown
3:56 PM 46.8 °F - 44.6 °F 92% 30.13 in 1.0 mi NE 4.6 mph - N/A   Unknown
4:15 PM 47.7 °F - 45.5 °F 92% 30.10 in 4.0 mi ENE 11.5 mph - N/A Rain Light Rain
4:35 PM 48.2 °F - 46.0 °F 92% 30.09 in 5.0 mi East 11.5 mph - N/A Rain Light Rain
4:36 PM 48.2 °F - 46.2 °F 93% 30.09 in 5.0 mi East 11.5 mph - N/A Rain Light Rain
4:55 PM 48.0 °F - 45.9 °F 92% 30.10 in 5.0 mi NE 4.6 mph - N/A Rain Light Rain
4:56 PM 48.0 °F - 45.9 °F 92% 30.10 in 5.0 mi NE 5.8 mph - N/A Rain Light Rain
5:15 PM 48.2 °F - 45.9 °F 92% 30.09 in 4.0 mi NE 9.2 mph - N/A Rain Light Rain
5:16 PM 48.2 °F - 45.9 °F 92% 30.09 in 4.0 mi NE 9.2 mph - N/A Rain Light Rain
5:35 PM 48.2 °F - 45.9 °F 92% 30.09 in 5.0 mi North 6.9 mph - N/A   Overcast
5:36 PM 48.2 °F - 45.9 °F 92% 30.09 in 5.0 mi North 6.9 mph - N/A   Overcast
5:55 PM 47.5 °F - 45.5 °F 93% 30.09 in 5.0 mi North 5.8 mph - N/A   Overcast
6:15 PM 47.3 °F - 45.1 °F 92% 30.10 in 5.0 mi North 6.9 mph - N/A   Overcast
6:16 PM 47.3 °F - 45.1 °F 92% 30.10 in 5.0 mi North 8.1 mph - N/A   Overcast
6:55 PM 46.8 °F - 45.0 °F 93% 30.09 in 4.0 mi NNE 4.6 mph - N/A   Light Drizzle
7:15 PM 46.6 °F - 44.8 °F 93% 30.08 in 4.0 mi NE 6.9 mph - N/A   Overcast
7:35 PM 46.4 °F 42.9 °F 44.6 °F 93% 30.08 in 5.0 mi NNE 6.9 mph - N/A   Overcast
7:55 PM 46.4 °F 44.3 °F 44.6 °F 93% 30.09 in 4.0 mi North 4.6 mph - N/A Rain Light Rain
8:16 PM 46.4 °F 43.5 °F 44.6 °F 93% 30.08 in 1.8 mi North 5.8 mph - N/A Rain Light Rain
8:35 PM 45.9 °F 42.3 °F 44.2 °F 94% 30.08 in 4.0 mi North 6.9 mph - N/A Rain Light Rain
8:36 PM 45.7 °F 42.0 °F 44.1 °F 94% 30.08 in 4.0 mi North 6.9 mph - N/A Rain Light Rain
8:55 PM 45.7 °F 42.0 °F 44.1 °F 94% 30.08 in 7.0 mi NNE 6.9 mph - N/A   Overcast
8:56 PM 45.7 °F 42.7 °F 44.1 °F 94% 30.08 in 7.0 mi NNE 5.8 mph - N/A   Overcast
9:15 PM 45.5 °F 41.8 °F 43.9 °F 94% 30.07 in 3.0 mi NNE 6.9 mph - N/A Rain Light Rain
9:16 PM 45.5 °F 41.8 °F 43.9 °F 94% 30.07 in 3.0 mi NNE 6.9 mph - N/A Rain Light Rain
9:35 PM 45.5 °F 41.3 °F 43.9 °F 94% 30.07 in 7.0 mi NE 8.1 mph - N/A Rain Light Rain
9:55 PM 45.5 °F 41.3 °F 43.9 °F 94% 30.08 in 7.0 mi NNE 8.1 mph - N/A Rain Light Rain
10:15 PM 45.5 °F 41.3 °F 43.7 °F 93% 30.08 in 10.0 mi NNE 8.1 mph - N/A Rain Rain
10:35 PM 45.5 °F 41.3 °F 43.9 °F 94% 30.08 in 7.0 mi NNE 8.1 mph - N/A Rain Light Rain
10:55 PM 45.5 °F 41.8 °F 43.9 °F 94% 30.08 in 7.0 mi North 6.9 mph - N/A Rain Light Rain
10:56 PM 45.5 °F 41.8 °F 44.1 °F 95% 30.08 in 7.0 mi North 6.9 mph - N/A Rain Light Rain
11:15 PM 45.5 °F 41.8 °F 43.9 °F 94% 30.08 in 7.0 mi North 6.9 mph - N/A Rain Light Rain
11:16 PM 45.5 °F 41.8 °F 43.9 °F 94% 30.08 in 7.0 mi North 6.9 mph - N/A Rain Light Rain
11:35 PM 45.5 °F 42.5 °F 43.7 °F 93% 30.09 in 5.0 mi North 5.8 mph - N/A Rain Rain
11:36 PM 45.5 °F 42.5 °F 43.7 °F 93% 30.09 in 7.0 mi North 5.8 mph - N/A Rain Rain
11:55 PM 45.1 °F 41.4 °F 43.7 °F 95% 30.08 in 2.5 mi North 6.9 mph - N/A Rain Light Rain
11:56 PM 45.1 °F 41.4 °F 43.7 °F 95% 30.08 in 2.5 mi North 6.9 mph - N/A Rain Light Rain